OpenBCM V1.08-3-g9b42 (Linux)

Packet Radio Mailbox

OK0NBR

[Sao_Jose_dos_Campo]

 Login: GUEST





  
I0OJJ  > KEPS     05.10.25 20:04l 313 Lines 14849 Bytes #152 (0) @ AMSAT
BID : ORB25278.1
Read: GUEST
Subj: 2Line Orbital Elements 25278.AMSAT
Path: OK0NBR<IW0QNL<HB9ON<DK0WUE<PD0LPM<IR0AAB<I0OJJ
Sent: 251005/0021z @:I0OJJ.ITA.EU [Rome] obcm1.08-11-2-gbfe9
From: I0OJJ @ I0OJJ.ITA.EU (Gustavo)
To:   KEPS @ AMSAT
X-Info: This message was generated automatically


QST de W1STR

AMSAT Orbital Elements for Amateur Satellites in TLE Format
From Orbital Analysis Office
New England Sci-Tech STEM Education Center
Natick MA October 05, 2025
To all radio amateurs


These element sets describe the orbits of various satellites 
in use by the amateur radio community. For details see:
www.amsat.org/keplerian-elements-formats/

A daily update of element sets is available at:
www.amsat.org/tle/daily-bulletin.txt
or without bulletin text:
www.amsat.org/tle/dailytle.txt


AO-07
1 07530U 74089B   25277.49110646 -.00000021  00000-0  15979-3 0  9995
2 07530 101.9990 283.0185 0011904 259.2530 255.4203 12.53692114328473
UO-11
1 14781U 84021B   25277.89025299  .00002752  00000-0  29257-3 0  9997
2 14781  97.7688 242.0475 0006580 318.5676  41.5042 14.89789717219107
AO-27
1 22825U 93061C   25276.44136679  .00000369  00000-0  15773-3 0  9994
2 22825  98.7247 338.5076 0009283 129.2243 230.9765 14.30839413670286
FO-29
1 24278U 96046B   25276.60974411  .00000052  00000-0  87477-4 0  9996
2 24278  98.5550 155.1346 0350674  42.0462 320.7031 13.53255926438467
NOAA-15
1 25338U 98030A   25277.83650463  .00000341  00000-0  15748-3 0  9995
2 25338  98.5301 300.1191 0010620  22.1998 337.9641 14.27029707424871
GO-32
1 25397U 98043D   25277.44395219  .00000255  00000-0  13030-3 0  9992
2 25397  98.9848 259.0770 0000741 175.0807 185.0378 14.24348103414926
ISS
1 25544U 98067A   25277.85315669  .00012686  00000-0  23245-3 0  9998
2 25544  51.6326 123.5365 0000933 203.2133 156.8813 15.49682341532172
NO-44
1 26931U 01043C   25277.72266720  .00000459  00000-0  20261-3 0  9996
2 26931  67.0508 184.9509 0007080 274.0166  86.0127 14.31798146253879
SO-50
1 27607U 02058C   25277.78283681  .00003416  00000-0  43056-3 0  9998
2 27607  64.5536 198.6588 0067660 309.6325  49.8821 14.82032123226593
CO-55
1 27844U 03031E   25276.47266659  .00000922  00000-0  41986-3 0  9993
2 27844  98.6791 283.2720 0009045 205.0782 154.9959 14.24092793155131
CO-57
1 27848U 03031J   25277.45976910  .00000666  00000-0  31246-3 0  9997
2 27848  98.6821 284.1633 0008689 220.8664 139.1864 14.23414783154998
RS-22
1 27939U 03042A   25277.83085498  .00002398  00000-0  38420-3 0  9999
2 27939  98.3371  90.2144 0011451   4.4157 106.6306 14.72678290177953
CO-58
1 28895U 05043F   25277.83970669  .00003383  00000-0  55308-3 0  9996
2 28895  98.2659  63.7981 0013365 297.4039  62.5807 14.71476089 64183
CO-65
1 32785U 08021C   25277.88938713  .00010015  00000-0  69407-3 0  9992
2 32785  97.7976 250.0995 0009926 164.5793 195.5738 15.05793701946727
CO-66
1 32791U 08021J   25277.68185964  .00025217  00000-0  11031-2 0  9998
2 32791  97.7385 260.6433 0006245 110.4650 249.7256 15.22034492948289
RS-30
1 32953U 08025A   25277.90129166  .00000044  00000-0  24686-3 0  9991
2 32953  82.5044 154.2389 0019329 146.5029 213.7277 12.43168878787975
NOAA-19
1 33591U 09005A   25277.78756564  .00000145  00000-0  10137-3 0  9991
2 33591  98.9858 343.0866 0014286  36.5531 323.6613 14.13415100858403
SRMSAT
1 37841U 11058D   25277.88558560  .00000572  00000-0  16687-3 0  9991
2 37841  19.9709 164.6622 0011674 274.9288 168.3653 14.11475890721705
ZACUBE-1
1 39417U 13066B   25277.61430118  .00010876  00000-0  90979-3 0  9996
2 39417  97.7915 234.1612 0043475  23.2271 337.0903 14.97908567642422
Delfi-N3xt
1 39428U 13066N   25277.48565593  .00016489  00000-0  16011-2 0  9999
2 39428  97.8288 193.9012 0081239 336.5849  23.1677 14.90207160636478
GOMX-1
1 39430U 13066Q   25277.80338684  .00004055  00000-0  62638-3 0  9990
2 39430  97.6689 129.2346 0131268 176.4442 183.7729 14.68148720632427
LO-74
1 39440U 13066AA  25277.43362522  .00006608  00000-0  65141-3 0  9996
2 39440  97.8579 221.2989 0061564 152.6834 207.7644 14.90926221638846
AO-73
1 39444U 13066AE  25277.84696866  .00016749  00000-0  11860-2 0  9991
2 39444  97.7954 240.4064 0040107 353.3979   6.6712 15.04241912641202
DTUSAT-2
1 40030U 14033W   25277.66136424  .00013188  00000-0  81250-3 0  9993
2 40030  98.0685 255.3531 0010052  37.8498 322.3435 15.10075607614056
EO-80
1 40032U 14033Y   25277.87411964  .00014197  00000-0  87232-3 0  9990
2 40032  98.0566 255.0683 0007124 339.7349  20.3595 15.10174430614063
LILACSAT-2
1 40908U 15049K   25277.81331604  .00021890  00000-0  51458-3 0  9995
2 40908  97.5007 301.1833 0010664  98.6140 261.6316 15.41955426556277
IO-86
1 40931U 15052B   25151.18580175  .00001241  00000-0  78118-4 0  9996
2 40931   6.0006  24.0987 0012733 338.8432  21.1169 14.78805930523159
Horyu-4
1 41340U 16012D   25277.70178284  .00055874  00000-0  12047-2 0  9997
2 41340  30.9953  61.2498 0003850 199.7206 160.3293 15.43290357530857
Lapan A3
1 41603U 16040E   25277.87859661  .00006961  00000-0  23614-3 0  9999
2 41603  97.1422 277.9769 0009982 199.9066 160.1787 15.30778155515728
CAS-2T
1 41847U 16066G   25277.67724118  .00003562  00000-0  51136-3 0  9997
2 41847  98.4112 351.0894 0344912 183.9477 175.8980 14.43829049467912
CAS-4B
1 42759U 17034B   25277.85196793  .00780711  28918-3  14006-2 0  9991
2 42759  42.9967 331.5429 0018987  43.9914 316.2472 16.00502986461087
CAS-4A
1 42761U 17034D   25277.57233429  .01280609  10436-2  13006-2 0  9997
2 42761  42.9981 327.7970 0016407  47.3939 312.8324 16.09921020461085
TechnoSat
1 42829U 17042E   25276.42447598  .00008171  00000-0  61645-3 0  9996
2 42829  97.3976  79.7221 0017316 250.0755 109.8606 15.02563425448119
AO-91
1 43017U 17073E   25276.09925854  .00016239  00000-0  79023-3 0  9992
2 43017  97.5069 143.9815 0168120 132.0035 229.5650 15.06800369426599
S-Net D
1 43186U 18014G   25277.80755051  .00010266  00000-0  58215-3 0  9999
2 43186  97.5492 179.5169 0008979 169.0769 191.0658 15.13132576420098
S-Net B
1 43187U 18014H   25277.68226985  .00010583  00000-0  60036-3 0  9991
2 43187  97.5496 179.3703 0009803 165.9203 194.2303 15.13105808420078
S-Net A
1 43188U 18014J   25276.48491452  .00012238  00000-0  69346-3 0  9994
2 43188  97.5501 178.3506 0009462 170.5138 189.6274 15.13109327419899
S-Net C
1 43189U 18014K   25277.68497494  .00010416  00000-0  59082-3 0  9992
2 43189  97.5520 179.5731 0011315 161.1165 199.0488 15.13099601418625
Ten-Koh
1 43677U 18084G   25277.73706560  .00004578  00000-0  36170-3 0  9999
2 43677  98.0754  94.6376 0007661 221.6493 138.4147 15.01190476377812
PO-101
1 43678U 18084H   25277.83888242  .00004351  00000-0  36498-3 0  9991
2 43678  98.1060  98.5304 0007578 250.1256 109.9149 14.98915907377947
QO-100
1 43700U 18090A   25277.78697067  .00000000  00000-0  00000+0 0  9994
2 43700   0.0256 202.6631 0001679  23.0404  97.1231  1.00268642 25116
MinXSS-2
1 43758U 18099A   25277.46309479  .00035139  00000-0  12046-2 0  9995
2 43758  97.4906 344.0968 0011874 104.4723 255.7836 15.30034585374813
AO-95
1 43770U 18099N   25276.12257209  .00021237  00000-0  99822-3 0  9996
2 43770  97.4791 333.0096 0010709 163.2544 196.9046 15.19563778374085
SNUSat 2
1 43782U 18099AA  25276.62429650  .00016804  00000-0  86310-3 0  9997
2 43782  97.4479 329.2804 0013114 110.4017 249.8626 15.16490843374077
SnugLite
1 43784U 18099AC  25277.57522388  .00018291  00000-0  85119-3 0  9994
2 43784  97.4286 330.0439 0004778 107.0226 253.1532 15.19981723374393
ITASat 1
1 43786U 18099AE  25276.10563211  .00014884  00000-0  80816-3 0  9997
2 43786  97.4444 327.9246 0014475 161.3755 198.8010 15.14533648373936
EAGLET 1
1 43790U 18099AJ  25277.61648752  .00008327  00000-0  51316-3 0  9991
2 43790  97.4644 328.9375 0012821 142.0987 218.1148 15.10141468373729
ESEO
1 43792U 18099AL  25277.85571825  .00003467  00000-0  26078-3 0  9992
2 43792  97.4374 320.8257 0014218 120.5510 239.7121 15.03095867373437
JO-97
1 43803U 18099AX  25277.60519097  .00022628  00000-0  93762-3 0  9995
2 43803  97.4541 335.7621 0008417  97.2759 262.9435 15.23879959374571
Suomi 100
1 43804U 18099AY  25276.44208883  .00025176  00000-0  11374-2 0  9994
2 43804  97.4605 333.5375 0013194 103.8782 256.3922 15.20868501374298
ISAT
1 43879U 18111D   25276.29499950  .00065887  00000-0  19036-2 0  9997
2 43879  97.5871 193.5624 0010031 132.8350 227.3737 15.35362205371416
UWE-4
1 43880U 18111E   25277.46924675  .00031687  00000-0  10873-2 0  9997
2 43880  97.5820 192.3355 0012256 146.5579 213.6437 15.30023055371479
Sparrow
1 43881U 18111F   25277.73503757  .00048358  00000-0  13239-2 0  9994
2 43881  97.6041 198.4229 0007206 152.5931 207.5695 15.37155239371746
Prox-1
1 44339U 19036A   25277.57952696  .00018558  00000-0  22129-2 0  9999
2 44339  23.9978  11.9002 0006557 336.7626  23.2575 14.82678565335380
Taurus 1
1 44530U 19059C   25277.87665383  .00012106  00000-0  21388-2 0  9993
2 44530  98.6191  63.0417 0008967  33.2121 326.9643 14.67549192321136
Duchifat 3
1 44854U 19089C   25277.49994631  .00159001  00000-0  17256-2 0  9999
2 44854  36.9375 325.4018 0006572 156.1261 203.9806 15.62046846321191
TO-108
1 44881U 19093C   25277.81492961  .00002329  00000-0  27313-3 0  9995
2 44881  97.7834 350.9721 0013187 201.0867 158.9806 14.85866254313481
FloripaSat 1
1 44885U 19093G   25277.82780148  .00010664  00000-0  86242-3 0  9994
2 44885  97.8118   5.7467 0010111 180.0564 180.0660 14.99923564314317
RS-44
1 44909U 19096E   25277.82511181  .00000031  00000-0  79895-4 0  9997
2 44909  82.5220 149.4057 0218031  21.6909 339.3253 12.79744152269680
UPMSat 2
1 46276U 20061E   25276.21066345  .01054167  64955-3  12731-2 0  9995
2 46276  97.2274 356.3532 0005661 254.7650 105.3007 16.08358446283725
SALSAT
1 46495U 20068K   25276.60624409  .00014598  00000-0  59341-3 0  9999
2 46495  97.8729 260.2080 0012992 115.0254 245.2333 15.24588549276199
